WZZ17MM EFHK-EETN

Flight info

Callsign WZZ17MM
Flight time 0h 19m
Altitude 11000
Route RENKU
Aircraft A32N/M-V/N

Departure

Time 2026-04-23 14:27
Airport Helsinki Vantaa Airport (EFHK)

Arrival

Time 2026-04-23 14:47
Airport Lennart Meri Tallinn Airport (EETN)
Time Latitude Longitude Altitude Speed Heading
2026-04-23 14:15 60.31779 24.96267 183 ft 0 kts 138°
2026-04-23 14:19 60.31785 24.96255 183 ft 2 kts 138°
2026-04-23 14:20 60.31797 24.96234 182 ft 2 kts 138°
2026-04-23 14:20 60.31808 24.96214 182 ft 2 kts 138°
2026-04-23 14:20 60.31819 24.96194 181 ft 2 kts 138°
2026-04-23 14:20 60.31830 24.96174 180 ft 2 kts 138°
2026-04-23 14:21 60.31838 24.96160 180 ft 1 kts 166°
2026-04-23 14:21 60.31846 24.96162 180 ft 1 kts 224°
2026-04-23 14:21 60.31849 24.96171 181 ft 0 kts 240°
2026-04-23 14:21 60.31851 24.96177 181 ft 0 kts 236°
2026-04-23 14:22 60.31847 24.96167 180 ft 2 kts 236°
2026-04-23 14:23 60.31826 24.96107 179 ft 7 kts 233°
2026-04-23 14:23 60.31782 24.96010 177 ft 11 kts 225°
2026-04-23 14:23 60.31723 24.95885 177 ft 12 kts 227°
2026-04-23 14:23 60.31661 24.95750 177 ft 13 kts 227°
2026-04-23 14:24 60.31668 24.95603 177 ft 13 kts 319°
2026-04-23 14:24 60.31700 24.95458 178 ft 12 kts 234°
2026-04-23 14:24 60.31647 24.95336 181 ft 11 kts 227°
2026-04-23 14:24 60.31588 24.95205 181 ft 14 kts 228°
2026-04-23 14:25 60.31507 24.95027 178 ft 20 kts 227°
2026-04-23 14:25 60.31395 24.94779 168 ft 27 kts 229°
2026-04-23 14:25 60.31259 24.94478 163 ft 29 kts 229°
2026-04-23 14:25 60.31122 24.94181 165 ft 27 kts 226°
2026-04-23 14:26 60.30994 24.93900 165 ft 21 kts 229°
2026-04-23 14:26 60.31016 24.93672 163 ft 18 kts 316°
2026-04-23 14:26 60.31096 24.93572 165 ft 11 kts 22°
2026-04-23 14:26 60.31208 24.93807 159 ft 53 kts 46°
2026-04-23 14:27 60.31625 24.94722 175 ft 122 kts 44°
2026-04-23 14:27 60.32310 24.96250 390 ft 159 kts 44°
2026-04-23 14:27 60.33034 24.97906 1115 ft 162 kts 45°
2026-04-23 14:27 60.33756 24.99561 1988 ft 157 kts 44°
2026-04-23 14:28 60.34497 25.01216 2564 ft 168 kts 43°
2026-04-23 14:28 60.35327 25.02990 3050 ft 184 kts 43°
2026-04-23 14:28 60.36254 25.04981 3517 ft 205 kts 43°
2026-04-23 14:28 60.37251 25.07153 4203 ft 216 kts 43°
2026-04-23 14:29 60.38229 25.09319 5199 ft 213 kts 44°
2026-04-23 14:29 60.39007 25.11884 6118 ft 222 kts 68°
2026-04-23 14:29 60.39150 25.14984 7017 ft 234 kts 93°
2026-04-23 14:29 60.38618 25.18170 7915 ft 244 kts 108°
2026-04-23 14:30 60.37885 25.21234 8738 ft 249 kts 109°
2026-04-23 14:30 60.37117 25.24371 9544 ft 254 kts 108°
2026-04-23 14:30 60.36340 25.27600 10303 ft 258 kts 107°
2026-04-23 14:30 60.35572 25.30838 10757 ft 260 kts 106°
2026-04-23 14:31 60.34666 25.34040 10862 ft 271 kts 122°
2026-04-23 14:31 60.33209 25.36566 10878 ft 282 kts 147°
2026-04-23 14:31 60.31280 25.37884 10908 ft 310 kts 173°
2026-04-23 14:31 60.29031 25.38013 10893 ft 343 kts 181°
2026-04-23 14:32 60.26547 25.37845 10898 ft 375 kts 182°
2026-04-23 14:32 60.23902 25.37151 10894 ft 386 kts 197°
2026-04-23 14:32 60.21464 25.35030 10887 ft 382 kts 215°
2026-04-23 14:32 60.19280 25.32059 10889 ft 381 kts 219°
2026-04-23 14:33 60.17134 25.28962 10841 ft 381 kts 220°
2026-04-23 14:33 60.14980 25.25867 10872 ft 381 kts 220°
2026-04-23 14:33 60.12838 25.22837 10893 ft 382 kts 219°
2026-04-23 14:33 60.10656 25.19789 10900 ft 382 kts 219°
2026-04-23 14:34 60.08477 25.16777 10894 ft 381 kts 219°
2026-04-23 14:34 60.06299 25.13782 10895 ft 381 kts 218°
2026-04-23 14:34 60.04129 25.10810 10899 ft 381 kts 218°
2026-04-23 14:34 60.01933 25.07809 10876 ft 382 kts 219°
2026-04-23 14:35 59.99732 25.04806 10884 ft 381 kts 219°
2026-04-23 14:35 59.97554 25.01834 10863 ft 381 kts 218°
2026-04-23 14:35 59.95371 24.98861 10804 ft 382 kts 218°
2026-04-23 14:35 59.93198 24.95915 10623 ft 377 kts 218°
2026-04-23 14:36 59.91070 24.93031 10151 ft 373 kts 218°
2026-04-23 14:36 59.88893 24.90204 9601 ft 373 kts 211°
2026-04-23 14:36 59.86420 24.88695 9069 ft 374 kts 188°
2026-04-23 14:36 59.83875 24.88457 8614 ft 368 kts 181°
2026-04-23 14:37 59.81316 24.88465 8115 ft 364 kts 179°
2026-04-23 14:37 59.78863 24.89362 7569 ft 359 kts 156°
2026-04-23 14:37 59.76737 24.91697 7116 ft 351 kts 144°
2026-04-23 14:37 59.74733 24.94398 6608 ft 347 kts 143°
2026-04-23 14:38 59.72738 24.97051 6315 ft 343 kts 145°
2026-04-23 14:38 59.70731 24.99581 6058 ft 343 kts 146°
2026-04-23 14:38 59.68705 25.02025 5788 ft 342 kts 147°
2026-04-23 14:38 59.66661 25.04422 5517 ft 341 kts 148°
2026-04-23 14:39 59.64632 25.06769 5258 ft 340 kts 148°
2026-04-23 14:39 59.62595 25.09115 5016 ft 331 kts 148°
2026-04-23 14:39 59.60671 25.11322 4955 ft 314 kts 148°
2026-04-23 14:39 59.58811 25.13456 4777 ft 304 kts 148°
2026-04-23 14:40 59.57014 25.15518 4541 ft 295 kts 148°
2026-04-23 14:40 59.55268 25.17520 4302 ft 288 kts 148°
2026-04-23 14:40 59.53572 25.19463 4054 ft 281 kts 147°
2026-04-23 14:40 59.51891 25.21384 3799 ft 274 kts 148°
2026-04-23 14:41 59.50261 25.23236 3555 ft 268 kts 150°
2026-04-23 14:41 59.48530 25.24330 3302 ft 264 kts 176°
2026-04-23 14:41 59.46708 25.24332 3115 ft 256 kts 182°
2026-04-23 14:41 59.44987 25.24204 3092 ft 242 kts 183°
2026-04-23 14:42 59.43341 25.24091 3034 ft 231 kts 182°
2026-04-23 14:42 59.41775 25.23946 2924 ft 221 kts 192°
2026-04-23 14:42 59.40475 25.22642 2699 ft 209 kts 236°
2026-04-23 14:42 59.40025 25.20123 2443 ft 193 kts 281°
2026-04-23 14:43 59.40328 25.17633 2296 ft 186 kts 293°
2026-04-23 14:43 59.40741 25.15243 2179 ft 187 kts 291°
2026-04-23 14:43 59.41034 25.12748 2177 ft 191 kts 283°
2026-04-23 14:43 59.41180 25.10148 2178 ft 191 kts 279°
2026-04-23 14:44 59.41269 25.07531 2170 ft 193 kts 276°
2026-04-23 14:44 59.41295 25.04917 2063 ft 186 kts 275°
2026-04-23 14:44 59.41292 25.02417 1790 ft 183 kts 274°
2026-04-23 14:44 59.41287 25.00040 1550 ft 168 kts 274°
2026-04-23 14:45 59.41287 24.97838 1291 ft 154 kts 275°
2026-04-23 14:45 59.41290 24.95863 1075 ft 139 kts 275°
2026-04-23 14:45 59.41295 24.94030 890 ft 132 kts 275°
2026-04-23 14:45 59.41301 24.92226 739 ft 131 kts 274°
2026-04-23 14:46 59.41304 24.90468 544 ft 130 kts 274°
2026-04-23 14:46 59.41308 24.88721 396 ft 127 kts 274°
2026-04-23 14:46 59.41315 24.86985 201 ft 130 kts 274°
2026-04-23 14:46 59.41330 24.85295 148 ft 107 kts 268°
2026-04-23 14:47 59.41328 24.84169 151 ft 57 kts 272°
2026-04-23 14:47 59.41325 24.83479 151 ft 47 kts 269°
2026-04-23 14:47 59.41340 24.82918 149 ft 36 kts 276°
2026-04-23 14:47 59.41417 24.82486 148 ft 29 kts 300°
2026-04-23 14:48 59.41500 24.82135 148 ft 27 kts 283°
2026-04-23 14:48 59.41507 24.81783 148 ft 25 kts 269°
2026-04-23 14:48 59.41507 24.81445 149 ft 24 kts 270°
2026-04-23 14:48 59.41553 24.81189 153 ft 19 kts 342°